COSMOS 886 DEB, 9820

Orbit data source: Space-Track

COSMOS 886 DEB, 9820 is space debris in LEO originally from a launch on Mon, 27 Dec 1976 UTC launched from the Tyuratam Missile And Space Complex (TTMTR). Debris objects in space refer to the collection of defunct objects orbiting the Earth. Examples of debris include non-operational satellites, rocket bodies, and fragments generated from explosions, collisions, or faulty payload assembly.

Loading next visibility...
Identifier
9820, 1976-126AG
Orbit
LEO
Country
Flag of CISCIS
Related business
Manufacturer
Unknown
Mission
Spacecraft
Bus & Motor
Unknown
Mass
Unknown
Launch date (UTC)
1976-12-27 (49 years ago)
Launch vehicle
Unknown
Launch site
Tyuratam Missile And Space Complex (TTMTR)
Object type
Payload
Rocket body
Debris
Shape & HBR
Unknown shape, 0.3 m
Radar Cross Section
Medium (>0.1 m² and <1 m²)

Expand to show TLE details & history
Last TLE update: 20 hours ago

TLE from 20 hours ago
0 COSMOS 886 DEB
1 09820U 76126AG  26129.77982920  .00000059  00000-0  49554-3 0  9999
2 09820  65.7968 261.3375 0873118 165.2250 318.1497 11.92801269 19796
Epoch: 2026-05-09T18:42Z
TLE epoch observation values (Epoch: 2026-05-09T18:42:57.242Z)
Latitude
55.08933°
Longitude
-106.84309°
Altitude
1,225.486 km
Speed
7.466 km/s
True Right ascension
02h 45m 57s
True Declination
54° 56' 16"
Sunlit
Object was in daylight at epoch
Visualization orbit readout
Latitude
Unknown
Longitude
Unknown
Altitude
Unknown
Speed
Unknown
Apparent Right ascension
Unknown
Apparent Declination
Unknown
Sunlit
N/A
Visualization observer readout
Local Sidereal Time
22:48:02
Azimuth
Unknown
Elevation
Unknown
Doppler factor
Unknown
Orbital elements
Apogee altitude
2,418.248 km
Perigee altitude
1,005.538 km
Semi-major axis
8,090.03 km
Eccentricity
0.08731
Inclination
65.7968°
RAAN
261.3375°
Arg. of periapsis
165.225°
True anomaly
310.90551°
Mean anomaly
318.1497°
Eccentric anomaly
314.58692°
Mean motion
2.98276 °/min
Orbital period
120.69 mins
BSTAR
0.00049554
Loading maneuver chart data...
Computing Atmospheric mass density...
Loading historical data...
Loading historical data...
Loading historical data...
Loading historical data...
Loading historical data...
Loading historical data...
Loading historical data...

Documentation

Showing up to 5 results
|